Flag for U.S.A. Weather past 2 weeks in Boulder, Colorado, U.S.A.

Now
32 °F

Clear.


Feels Like: 27 °F
Forecast: 24 / 43 °F
Wind: 5 mph from North

Location: Broomfield / Jeffco

Current Time: Dec 18, 2014 at 2:18:25 AM

Latest Report: Dec 18, 2014 at 1:54 AM


Visibility: 10 mi

Pressure: 29.98 "Hg

Humidity: 80%

Dew point: 27 °F

Location of BoulderLocation

Historic Weather in Boulder — Graph

°F

Boulder temperature yesterday

Maximum temperature yesterday: 43 °F (at 12:45 PM)
Minimum temperature yesterday: 25 °F (at 1:35 AM)
Average temperature yesterday: 30 °F

Past Weeks' High & Low Weather Summary

 TemperatureHumidityPressure
High64 °F (Dec 11, 2:57 PM)100% (Dec 14, 9:51 AM)30.36 "Hg (Dec 14, 9:51 AM)
Low21 °F (Dec 16, 4:15 AM)11% (Dec 10, 2:48 PM)29.70 "Hg (Dec 14, 12:55 AM)
Average39 °F52%30.08 "Hg
* Reported Dec 3 1:15 AM — Dec 18 1:15 AM, Boulder, Weather by CustomWeather, © 2014

Note: Actual official high and low records may vary slightly from our data, if they occured in-between our weather recording intervals... More about our weather records

Advertising

Boulder weather history for previous 24 hours

 ConditionsComfort  
Time TempWeatherWind HumidityBarometerVisibility
1:15 AM
Dec 18
32 °FClear.3 mph80%29.97 "Hg10 mi
12:55 AM32 °FClear.No wind80%29.97 "Hg10 mi
12:35 AM32 °FClear.3 mph80%29.97 "Hg10 mi
12:15 AM32 °FClear.No wind80%29.97 "Hg10 mi
11:55 PM
Dec 17
30 °FClear.5 mph86%29.98 "Hg10 mi
11:35 PM30 °FClear.5 mph86%29.98 "Hg10 mi
11:15 PM30 °FClear.6 mph86%29.99 "Hg10 mi
10:54 PM32 °FClear.5 mph80%29.98 "Hg10 mi
10:35 PM30 °FClear.3 mph86%29.98 "Hg10 mi
10:15 PM32 °FPassing clouds.No wind80%29.98 "Hg10 mi
9:45 PM32 °FOvercast.No wind80%29.98 "Hg15 mi
8:45 PM32 °FMostly cloudy.No wind75%29.96 "Hg15 mi
7:53 PM34 °FOvercast.No wind75%29.96 "Hg15 mi
6:45 PM36 °FPartly cloudy.No wind70%29.95 "Hg15 mi
5:45 PM36 °FMostly cloudy.No wind65%29.93 "Hg15 mi
3:45 PM39 °FOvercast.3 mph61%29.92 "Hg15 mi
2:53 PM41 °FCloudy.3 mph57%29.90 "Hg15 mi
1:53 PM43 °FCloudy.7 mph53%29.89 "Hg15 mi
12:45 PM43 °FBroken clouds.5 mph49%29.90 "Hg15 mi
11:50 AM39 °FBroken clouds.No wind52%29.92 "Hg14 mi
10:50 AM37 °FBroken clouds.No wind65%29.96 "Hg15 mi
9:50 AM30 °FCloudy.No wind80%29.98 "Hg15 mi
8:50 AM27 °FCloudy.No wind86%29.97 "Hg15 mi
7:50 AM27 °FMostly cloudy.No wind86%29.97 "Hg25 mi
6:47 AM25 °FPartly cloudy.No wind86%29.97 "Hg25 mi
5:47 AM25 °FPassing clouds.No wind86%29.96 "Hg25 mi
4:55 AM27 °FClear.No wind86%29.95 "Hg10 mi
4:35 AM27 °FClear.6 mph80%29.96 "Hg10 mi
4:14 AM27 °FClear.No wind86%29.96 "Hg10 mi
3:55 AM25 °FClear.No wind93%29.97 "Hg10 mi
3:35 AM25 °FClear.No wind86%29.97 "Hg10 mi
3:15 AM27 °FClear.3 mph86%29.97 "Hg10 mi
2:55 AM27 °FClear.No wind86%29.98 "Hg10 mi
2:35 AM27 °FClear.No wind86%29.98 "Hg10 mi
2:15 AM27 °FClear.No wind93%29.98 "Hg10 mi
Weather by CustomWeather, © 2014

See weather overviewHow to use our weather pages